Torna al catalogo

CAS500-1

AttivoScienzaSSO
NORAD 47932·PAYLOAD·🇰🇷 South Korea

Lanciato Mar 22, 2021 da Baikonur Cosmodrome

Loading…

Prossimi Passaggi (prossime 24 ore)

TLE

AggiornatoSource: Space-Track

Epoca: Sep 14, 2026, 21:55 UTC

1 47932U 21022A   26257.91361090  .00005586  00000-0  26083-3 0  9999
2 47932  97.3759 151.2832 0004706 354.6758   5.4427 15.20207170304390

Traccia CAS500-1 in tempo reale con AllMySat

Download on the App Store